Flag for Romania Weather past 2 weeks in Brăila, Romania

Now
83 °F

Passing clouds.


Feels Like: 83 °F
Forecast: 62 / 77 °F
Wind: 3 mph from Southwest

Location: Galati

Current Time: Aug 27, 2014 at 10:30:46 PM

Latest Report: Aug 27, 2014 at 8:00 PM


Visibility: 13 mi

Pressure: 29.70 "Hg

Humidity: 45%

Dew point: 60 °F

Location of BrăilaLocation

Historic Weather in Brăila — Graph

°F

Brăila temperature yesterday

Maximum temperature yesterday: 82 °F (at 5:00 PM)
Minimum temperature yesterday: 61 °F (at 6:00 AM)
Average temperature yesterday: 71 °F

Past Weeks' High & Low Weather Summary

 TemperatureHumidityPressure
High97 °F (Aug 13, 5:00 PM)100% (Aug 16, 8:00 PM)30.11 "Hg (Aug 16, 8:00 PM)
Low58 °F (Aug 19, 6:00 AM)28% (Aug 13, 6:00 PM)29.70 "Hg (Aug 27, 7:00 PM)
Average74 °F64%29.94 "Hg
* Reported Aug 12 8:00 PM — Aug 27 8:00 PM, Brăila, Weather by CustomWeather, © 2014

Note: Actual official high and low records may vary slightly from our data, if they occured in-between our weather recording intervals... More about our weather records

Advertising

Brăila weather history for previous 24 hours

 ConditionsComfort  
Time TempWeatherWind HumidityBarometerVisibility
8:00 PM
Aug 27
83 °FPassing clouds.3 mph45%29.70 "Hg12 mi
7:00 PM86 °FPassing clouds.3 mph40%29.70 "Hg12 mi
5:00 PM87 °FScattered clouds.5 mph37%29.72 "Hg12 mi
4:00 PM88 °FScattered clouds.5 mph35%29.73 "Hg12 mi
3:00 PM88 °FPassing clouds.3 mph34%29.75 "Hg12 mi
2:00 PM86 °FPassing clouds.3 mph35%29.78 "Hg12 mi
11:00 AM76 °FPassing clouds.2 mph63%29.83 "Hg12 mi
10:00 AM72 °FPassing clouds.2 mph71%29.84 "Hg12 mi
9:00 AM69 °FPassing clouds.2 mph76%29.84 "Hg12 mi
8:00 AM66 °FScattered clouds.2 mph82%29.84 "Hg12 mi
7:00 AM65 °FSunny.2 mph84%29.84 "Hg12 mi
6:00 AM65 °FClear.2 mph84%29.83 "Hg12 mi
5:00 AM66 °FClear.2 mph83%29.85 "Hg12 mi
4:00 AM67 °FClear.2 mph81%29.87 "Hg12 mi
3:00 AM67 °FPassing clouds.3 mph79%29.87 "Hg12 mi
2:00 AM69 °FOvercast.3 mph76%29.88 "Hg12 mi
1:00 AM69 °FPassing clouds.3 mph74%29.88 "Hg12 mi
12:00 AM69 °FClear.3 mph71%29.89 "Hg12 mi
11:00 PM
Aug 26
69 °FClear.2 mph72%29.90 "Hg12 mi
10:00 PM70 °FPassing clouds.2 mph69%29.91 "Hg12 mi
Weather by CustomWeather, © 2014

See weather overviewHow to use our weather pages